Location: Fernhill
(41.0167°S, 175.6333°E)
Time: 10:59:28
(UTC+00:00)

COSMOS 2455 - Pass Details

Date: 08 November 2025
Orbit: 898 x 910 km, 67.1° (Epoch: 10 December)

Event Time Altitude Azimuth Distance (km) Brightness Sun altitude
Rises 11:40:28 0° 207° (SSW) 3,550 6.9 -32.1°
Reaches altitude 10° 11:43:03 10° 202° (SSW) 2,604 6.0 -32.1°
Enters shadow 11:48:37 55° 139° (SE) 1,081 3.3 -32.2°
